STARLINK-11618, 63185

Orbit data source: Space-Track

STARLINK-11618, 63185 is a payload satellite owned by SpaceX/Seattle (US) in LEO that was launched on Thu, 13 Mar 2025 UTC via an FALCON 9 launch vehicle from the Air Force Eastern Test Range (AFETR). Payload-class satellites include a variety of spacecraft equipped with specific instruments for various scientific and technological missions. These include communications satellites like Starlink; space stations such as the ISS; scientific satellites like the Hubble; Earth observation satellites from companies like Planet Labs, Umbra, and HawkEye 360; GPS; miniature CubeSats for education and research; and military/defense satellites.

Loading next visibility...
Identifier
63185, 2025-048C
Orbit
LEO
Country
Flag of USUS
Related business
Manufacturer
SpaceX/Seattle
Mission
Operational Commercial Communications
Bus & Motor
STARLINK V2MD, Unknown motor
Mass
960 kg wet, ~910 kg dry
Launch date (UTC)
2025-03-13 (1 year ago)
Launch vehicle
FALCON 9
Launch site
Air Force Eastern Test Range (AFETR)
Object type
Payload
Rocket body
Debris
Shape & HBR
Box + 2 Pan, 18.1 m
Radar Cross Section
36.964 m², Large (>1 m²)

Expand to show TLE details & history
Last TLE update: 17 hours ago

TLE from 17 hours ago
0 STARLINK-11618
1 63185U 25048C   26171.12299046  .00166807  00000-0  12770-2 0  9999
2 63185  42.9998  62.2510 0000780 315.0869  44.9936 15.70850354 74621
Epoch: 2026-06-20T02:57Z
TLE epoch observation values (Epoch: 2026-06-20T02:57:06.375Z)
Latitude
0.00001°
Longitude
109.63231°
Altitude
355.865 km
Speed
7.698 km/s
True Right ascension
04h 09m 00s
True Declination
0° 00' 00"
Sunlit
Object was in daylight at epoch
Visualization orbit readout
Latitude
Unknown
Longitude
Unknown
Altitude
Unknown
Speed
Unknown
Apparent Right ascension
Unknown
Apparent Declination
Unknown
Sunlit
N/A
Visualization observer readout
Local Sidereal Time
07:20:30
Azimuth
Unknown
Elevation
Unknown
Doppler factor
Unknown
Orbital elements
Apogee altitude
358.973 km
Perigee altitude
357.922 km
Semi-major axis
6,736.584 km
Eccentricity
0.00008
Inclination
42.9998°
RAAN
62.251°
Arg. of periapsis
315.0869°
True anomaly
44.99992°
Mean anomaly
44.9936°
Eccentric anomaly
44.99676°
Mean motion
3.9254 °/min
Orbital period
91.71 mins
BSTAR
0.001277
Loading maneuver chart data...
Computing Atmospheric mass density...
Loading historical data...
Loading historical data...
Loading historical data...
Loading historical data...
Loading historical data...
Loading historical data...
Loading historical data...

Documentation

Showing up to 5 results
|